User: anonymous   Login
Location: Bazugues
(43.4465°N, 0.3432°E)
Time: 16:24:33
(UTC+00:00)
Language:

USA 276 - Orbit

View from above orbital plane
View from above orbital plane
View from above satellite
View from above satellite

Ground track
Ground track

The orbit is defined by the following mean orbital elements,

1 42689U 17022A   22193.82779864 0.00018000  00000-0  16528-3 0    06
2 42689  49.9967 119.2555 0002172 113.0682 246.9316 15.66976839    07
Epoch (UTC): 12 July 2022 19:52:01
Eccentricity: 0.0002172
inclination: 49.9967°
perigee height: 366 km
apogee height: 369 km
right ascension of ascending node: 119.2555°
argument of perigee: 113.0682°
revolutions per day: 15.66976839
mean anomaly at epoch: 246.9316°

The dashed part of the orbit path shows where the satellite is in the earth's shadow,  

DLR